�������l�o���
Date,Time,MP-1(��Sv/h),MP-2(��Sv/h),MP-3(��Sv/h),MP-4(��Sv/h),MP-5(��Sv/h),MP-6(��Sv/h),MP-7(��Sv/h),MP-8(��Sv/h),����,����(m/s),���J
2022/08/05,00:00,0.585,0.817,0.522,0.981,0.702,0.335,0.581,0.549,�k�k��,2.2,��
2022/08/05,00:10,0.585,0.818,0.524,0.981,0.698,0.334,0.582,0.549,�k�k��,2.0,��
2022/08/05,00:20,0.583,0.819,0.522,0.984,0.702,0.336,0.582,0.549,�k�k��,2.0,��
2022/08/05,00:30,0.584,0.816,0.522,0.982,0.700,0.336,0.581,0.549,�k�k��,1.4,��
2022/08/05,00:40,0.584,0.819,0.521,0.981,0.701,0.335,0.582,0.549,�k��,1.4,��
2022/08/05,00:50,0.585,0.816,0.521,0.981,0.700,0.334,0.581,0.549,�k��,2.0,�L
2022/08/05,01:00,0.584,0.817,0.522,0.984,0.700,0.335,0.583,0.548,�k��,3.2,�L
2022/08/05,01:10,0.582,0.818,0.522,0.983,0.699,0.335,0.582,0.549,���k��,3.8,�L
2022/08/05,01:20,0.581,0.817,0.523,0.983,0.700,0.334,0.581,0.550,�k��,2.0,�L
2022/08/05,01:30,0.583,0.817,0.522,0.983,0.702,0.336,0.581,0.549,�k�k��,0.9,�L
2022/08/05,01:40,0.580,0.818,0.523,0.982,0.699,0.334,0.582,0.549,�k,0.9,��
2022/08/05,01:50,0.580,0.816,0.521,0.984,0.701,0.335,0.580,0.550,�k,1.4,��
2022/08/05,02:00,0.582,0.817,0.520,0.981,0.702,0.334,0.583,0.550,�k,1.5,��
2022/08/05,02:10,0.583,0.817,0.522,0.983,0.700,0.336,0.582,0.549,�k,2.5,��
2022/08/05,02:20,0.584,0.815,0.521,0.984,0.701,0.336,0.582,0.549,�k,1.2,��
2022/08/05,02:30,0.583,0.816,0.521,0.983,0.698,0.335,0.579,0.549,�k,2.9,��
2022/08/05,02:40,0.584,0.817,0.521,0.984,0.700,0.336,0.582,0.548,�k,1.2,��
2022/08/05,02:50,0.584,0.816,0.521,0.982,0.699,0.335,0.583,0.551,�k�k��,2.9,��
2022/08/05,03:00,0.583,0.816,0.523,0.983,0.699,0.335,0.582,0.550,�k�k��,2.0,��
2022/08/05,03:10,0.582,0.818,0.522,0.985,0.699,0.335,0.580,0.549,�k,1.4,��
2022/08/05,03:20,0.583,0.817,0.522,0.985,0.701,0.334,0.581,0.550,�k�k��,2.5,��
2022/08/05,03:30,0.583,0.815,0.521,0.984,0.700,0.334,0.580,0.549,�k�k��,2.0,��
2022/08/05,03:40,0.584,0.816,0.523,0.986,0.700,0.336,0.581,0.550,�k�k��,2.2,��
2022/08/05,03:50,0.582,0.816,0.522,0.986,0.699,0.334,0.580,0.551,�k�k��,2.3,��
2022/08/05,04:00,0.582,0.816,0.522,0.983,0.700,0.335,0.581,0.549,�k�k��,3.3,��
2022/08/05,04:10,0.583,0.818,0.521,0.984,0.701,0.335,0.579,0.549,�k�k��,3.3,��
2022/08/05,04:20,0.584,0.817,0.523,0.984,0.701,0.335,0.582,0.550,�k�k��,3.6,��
2022/08/05,04:30,0.583,0.817,0.521,0.983,0.700,0.334,0.581,0.549,�k�k��,3.4,��
2022/08/05,04:40,0.582,0.816,0.521,0.983,0.700,0.334,0.581,0.549,�k�k��,3.4,��
2022/08/05,04:50,0.584,0.818,0.521,0.983,0.702,0.335,0.581,0.549,�k�k��,4.2,��
2022/08/05,05:00,0.583,0.816,0.522,0.985,0.699,0.335,0.581,0.548,�k�k��,4.6,��
2022/08/05,05:10,0.583,0.817,0.521,0.983,0.702,0.334,0.581,0.550,�k,4.0,��
2022/08/05,05:20,0.582,0.818,0.522,0.984,0.702,0.333,0.580,0.550,�k�k��,3.7,��
2022/08/05,05:30,0.584,0.816,0.523,0.984,0.700,0.333,0.580,0.549,�k�k��,3.1,��
2022/08/05,05:40,0.583,0.817,0.522,0.983,0.700,0.333,0.580,0.549,�k�k��,2.3,��
2022/08/05,05:50,0.583,0.819,0.521,0.986,0.702,0.334,0.581,0.550,�k�k��,2.0,��
2022/08/05,06:00,0.584,0.819,0.522,0.982,0.702,0.335,0.581,0.551,�k,2.2,��
2022/08/05,06:10,0.584,0.818,0.521,0.983,0.702,0.335,0.582,0.549,�k�k��,2.6,��
2022/08/05,06:20,0.584,0.816,0.522,0.983,0.700,0.336,0.581,0.550,�k�k��,2.8,��
2022/08/05,06:30,0.581,0.818,0.523,0.984,0.700,0.335,0.580,0.549,�k�k��,2.6,��
2022/08/05,06:40,0.583,0.816,0.521,0.985,0.701,0.335,0.581,0.551,�k�k��,2.0,��
2022/08/05,06:50,0.584,0.818,0.522,0.985,0.702,0.335,0.581,0.550,�k�k��,1.7,��
2022/08/05,07:00,0.583,0.817,0.522,0.983,0.701,0.336,0.579,0.550,�k�k��,2.3,��
2022/08/05,07:10,0.584,0.815,0.522,0.985,0.700,0.335,0.581,0.550,�k,2.0,��
2022/08/05,07:20,0.583,0.817,0.523,0.986,0.703,0.336,0.580,0.550,�k,2.9,��
2022/08/05,07:30,0.583,0.817,0.522,0.985,0.698,0.334,0.580,0.550,�k,2.3,��
2022/08/05,07:40,0.584,0.813,0.523,0.986,0.700,0.335,0.579,0.550,�k,2.0,��
2022/08/05,07:50,0.582,0.813,0.521,0.986,0.703,0.334,0.581,0.549,�k�k��,2.3,��
2022/08/05,08:00,0.581,0.815,0.521,0.984,0.701,0.333,0.580,0.549,�k�k��,2.6,��
2022/08/05,08:10,0.582,0.818,0.523,0.986,0.700,0.334,0.579,0.550,�k�k��,3.6,��
2022/08/05,08:20,0.582,0.814,0.520,0.984,0.699,0.334,0.581,0.547,�k�k��,4.2,��
2022/08/05,08:30,0.581,0.812,0.521,0.983,0.699,0.334,0.580,0.549,�k��,4.6,��
2022/08/05,08:40,0.581,0.814,0.522,0.983,0.700,0.335,0.581,0.549,�k�k��,3.7,��
2022/08/05,08:50,0.582,0.813,0.521,0.983,0.699,0.333,0.581,0.549,�k�k��,3.1,��
2022/08/05,09:00,0.582,0.813,0.521,0.986,0.701,0.334,0.582,0.548,�k��,2.6,��
2022/08/05,09:10,0.582,0.813,0.522,0.984,0.701,0.334,0.580,0.549,�k�k��,3.6,��
2022/08/05,09:20,0.584,0.813,0.524,0.983,0.701,0.335,0.582,0.548,�k��,3.6,��
2022/08/05,09:30,0.584,0.815,0.522,0.986,0.701,0.336,0.580,0.548,�k��,3.1,��
2022/08/05,09:40,0.585,0.815,0.519,0.985,0.701,0.334,0.580,0.548,�k�k��,4.4,��
2022/08/05,09:50,0.583,0.814,0.521,0.987,0.700,0.335,0.581,0.548,�k��,4.3,��
2022/08/05,10:00,0.583,0.817,0.523,0.982,0.701,0.334,0.580,0.550,�k�k��,4.9,��
2022/08/05,10:10,0.583,0.815,0.523,0.982,0.700,0.337,0.582,0.550,�k��,5.0,��
2022/08/05,10:20,0.584,0.815,0.521,0.984,0.701,0.334,0.580,0.550,�k��,4.7,��
2022/08/05,10:30,0.583,0.815,0.521,0.982,0.703,0.335,0.580,0.547,�k�k��,4.0,��
2022/08/05,10:40,0.581,0.816,0.522,0.983,0.702,0.336,0.582,0.549,�k�k��,4.3,��
2022/08/05,10:50,0.582,0.815,0.521,0.983,0.703,0.336,0.582,0.549,�k��,4.0,��
2022/08/05,11:00,0.583,0.815,0.523,0.983,0.704,0.335,0.582,0.549,�k�k��,3.9,��
2022/08/05,11:10,0.585,0.816,0.522,0.984,0.704,0.336,0.583,0.549,�k��,3.3,��
2022/08/05,11:20,0.584,0.817,0.523,0.984,0.703,0.336,0.581,0.549,�k��,3.2,��
2022/08/05,11:30,0.587,0.821,0.524,0.982,0.704,0.335,0.582,0.550,�k�k��,3.5,��
2022/08/05,11:40,0.586,0.818,0.524,0.984,0.704,0.336,0.582,0.550,�k��,4.1,��
2022/08/05,11:50,0.586,0.819,0.525,0.985,0.704,0.335,0.582,0.549,�k��,4.6,��
2022/08/05,12:00,0.587,0.820,0.525,0.986,0.705,0.336,0.584,0.549,�k��,4.4,��
2022/08/05,12:10,0.585,0.822,0.525,0.985,0.705,0.335,0.583,0.550,�k��,4.0,��
2022/08/05,12:20,0.585,0.821,0.524,0.986,0.703,0.337,0.582,0.549,�k��,4.5,��
2022/08/05,12:30,0.586,0.820,0.526,0.987,0.703,0.335,0.583,0.549,�k��,4.0,��
2022/08/05,12:40,0.585,0.822,0.526,0.987,0.706,0.336,0.584,0.551,�k��,4.2,��
2022/08/05,12:50,0.589,0.820,0.526,0.985,0.706,0.336,0.584,0.551,�k��,4.3,��
2022/08/05,13:00,0.586,0.820,0.525,0.989,0.704,0.335,0.583,0.548,�k�k��,3.8,��
2022/08/05,13:10,0.587,0.821,0.525,0.986,0.704,0.335,0.583,0.550,�k��,3.5,��
2022/08/05,13:20,0.587,0.822,0.524,0.986,0.704,0.336,0.582,0.550,�k��,3.4,��
2022/08/05,13:30,0.587,0.822,0.523,0.989,0.704,0.337,0.584,0.551,�k��,3.8,��
2022/08/05,13:40,0.585,0.820,0.525,0.986,0.704,0.336,0.582,0.551,�k��,3.4,��
2022/08/05,13:50,0.586,0.821,0.525,0.989,0.706,0.338,0.583,0.549,�k��,4.2,��
2022/08/05,14:00,0.585,0.820,0.525,0.990,0.706,0.336,0.582,0.551,�k��,4.0,��
2022/08/05,14:10,0.585,0.821,0.525,0.989,0.705,0.337,0.584,0.550,�k�k��,3.6,��
2022/08/05,14:20,0.587,0.821,0.524,0.990,0.706,0.336,0.584,0.549,�k�k��,3.1,��
2022/08/05,14:30,0.588,0.822,0.524,0.991,0.706,0.337,0.582,0.549,�k�k��,3.3,��
2022/08/05,14:40,0.586,0.821,0.525,0.989,0.708,0.337,0.583,0.550,�k�k��,3.5,��
2022/08/05,14:50,0.587,0.820,0.526,0.989,0.708,0.335,0.583,0.550,�k�k��,3.3,��
2022/08/05,15:00,0.586,0.823,0.525,0.991,0.706,0.337,0.582,0.551,�k��,2.9,��
2022/08/05,15:10,0.586,0.824,0.527,0.993,0.708,0.335,0.584,0.549,�k�k��,3.1,��
2022/08/05,15:20,0.587,0.825,0.527,0.991,0.707,0.338,0.584,0.549,�k�k��,3.3,��
2022/08/05,15:30,0.586,0.823,0.526,0.991,0.706,0.336,0.582,0.552,�k��,3.7,��
2022/08/05,15:40,0.586,0.825,0.523,0.992,0.707,0.337,0.584,0.550,�k�k��,4.0,��
2022/08/05,15:50,0.588,0.825,0.525,0.991,0.706,0.336,0.583,0.551,�k�k��,4.1,��
2022/08/05,16:00,0.586,0.825,0.526,0.991,0.707,0.337,0.584,0.550,�k�k��,4.2,��
2022/08/05,16:10,0.587,0.823,0.525,0.990,0.707,0.337,0.584,0.551,�k�k��,3.5,��
2022/08/05,16:20,0.586,0.823,0.525,0.991,0.708,0.336,0.584,0.551,�k�k��,3.9,��
2022/08/05,16:30,0.584,0.825,0.526,0.992,0.706,0.336,0.585,0.552,�k�k��,3.9,��
2022/08/05,16:40,0.581,0.825,0.524,0.992,0.707,0.337,0.582,0.550,�k�k��,4.2,��
2022/08/05,16:50,0.584,0.825,0.524,0.991,0.706,0.337,0.582,0.551,�k�k��,3.6,��
2022/08/05,17:00,0.586,0.826,0.527,0.991,0.708,0.338,0.584,0.550,�k��,3.9,��
2022/08/05,17:10,0.587,0.827,0.527,0.992,0.707,0.335,0.584,0.550,�k��,3.8,��
2022/08/05,17:20,0.587,0.825,0.525,0.992,0.708,0.337,0.583,0.549,�k��,3.9,��
2022/08/05,17:30,0.585,0.825,0.526,0.994,0.707,0.336,0.584,0.551,�k��,3.9,��
2022/08/05,17:40,0.587,0.826,0.526,0.993,0.707,0.337,0.584,0.552,�k�k��,3.7,��
2022/08/05,17:50,0.586,0.827,0.525,0.994,0.709,0.335,0.583,0.552,�k��,4.2,��
2022/08/05,18:00,0.588,0.826,0.526,0.994,0.704,0.336,0.583,0.551,�k��,4.3,��
2022/08/05,18:10,0.586,0.827,0.527,0.992,0.709,0.336,0.583,0.552,�k��,4.1,��
2022/08/05,18:20,0.586,0.826,0.526,0.993,0.708,0.335,0.585,0.551,�k��,3.8,��
2022/08/05,18:30,0.584,0.826,0.527,0.997,0.708,0.336,0.584,0.552,�k��,3.3,��
2022/08/05,18:40,0.586,0.827,0.528,0.994,0.708,0.337,0.584,0.551,���k��,2.8,��
2022/08/05,18:50,0.587,0.829,0.528,0.995,0.708,0.337,0.584,0.550,�k�k��,3.3,��
2022/08/05,19:00,0.585,0.828,0.528,0.994,0.708,0.336,0.584,0.549,�k��,3.2,��
2022/08/05,19:10,0.586,0.827,0.529,0.996,0.708,0.336,0.583,0.553,�k�k��,2.6,��
2022/08/05,19:20,0.587,0.827,0.528,0.992,0.710,0.337,0.585,0.552,�k�k��,2.8,��
2022/08/05,19:30,0.588,0.828,0.526,0.992,0.707,0.336,0.584,0.553,�k��,2.3,��
2022/08/05,19:40,0.587,0.827,0.527,0.992,0.709,0.337,0.585,0.552,�k�k��,2.2,��
2022/08/05,19:50,0.587,0.829,0.549,0.994,0.708,0.336,0.585,0.553,�k,1.4,��
2022/08/05,20:00,0.587,0.826,0.526,0.994,0.711,0.337,0.585,0.554,�k,2.0,��
2022/08/05,20:10,0.588,0.828,0.527,0.994,0.710,0.337,0.585,0.553,�k,1.9,��
2022/08/05,20:20,0.589,0.830,0.527,0.993,0.710,0.337,0.586,0.553,�k,1.9,��
2022/08/05,20:30,0.590,0.828,0.526,0.994,0.711,0.336,0.585,0.554,�k,1.4,��
2022/08/05,20:40,0.587,0.831,0.528,0.996,0.712,0.336,0.584,0.554,�k�k��,1.5,��
2022/08/05,20:50,0.589,0.829,0.526,0.994,0.709,0.336,0.584,0.554,�k,1.4,��
2022/08/05,21:00,0.591,0.829,0.528,0.995,0.710,0.336,0.585,0.553,�k�k��,1.5,��
2022/08/05,21:10,0.592,0.830,0.527,0.994,0.712,0.338,0.585,0.554,�k�k��,2.2,��
2022/08/05,21:20,0.591,0.829,0.527,0.995,0.713,0.337,0.585,0.552,�k�k��,1.1,��
2022/08/05,21:30,0.592,0.828,0.527,0.995,0.711,0.337,0.585,0.555,�k,1.4,��
2022/08/05,21:40,0.588,0.829,0.527,0.995,0.712,0.337,0.584,0.554,�k�k��,2.2,��
2022/08/05,21:50,0.590,0.827,0.528,0.995,0.711,0.338,0.586,0.553,�k�k��,2.0,��
2022/08/05,22:00,0.588,0.830,0.526,0.995,0.712,0.337,0.586,0.553,�k�k��,1.9,��
2022/08/05,22:10,0.587,0.830,0.527,0.993,0.711,0.338,0.586,0.553,�k,2.3,��
2022/08/05,22:20,0.590,0.830,0.527,0.995,0.711,0.337,0.586,0.552,�k�k��,1.9,��
2022/08/05,22:30,0.589,0.829,0.526,0.998,0.712,0.337,0.586,0.554,�k�k��,2.3,��
2022/08/05,22:40,0.588,0.829,0.527,0.995,0.711,0.338,0.587,0.554,�k��,2.3,��
2022/08/05,22:50,0.590,0.829,0.529,0.994,0.711,0.337,0.586,0.552,�k�k��,2.2,��
2022/08/05,23:00,0.588,0.828,0.525,0.996,0.712,0.337,0.585,0.552,�k�k��,2.3,��
2022/08/05,23:10,0.591,0.831,0.527,0.994,0.711,0.337,0.586,0.554,�k��,1.9,��
2022/08/05,23:20,0.589,0.831,0.528,0.994,0.711,0.338,0.585,0.553,�k��,2.3,��
2022/08/05,23:30,0.589,0.830,0.527,0.997,0.713,0.337,0.586,0.553,�k��,2.8,��
2022/08/05,23:40,0.590,0.830,0.527,0.995,0.711,0.338,0.586,0.552,�k��,2.9,��
2022/08/05,23:50,0.587,0.830,0.528,0.995,0.712,0.338,0.587,0.553,�k��,2.6,��
